AO-07 1 07530U 74089B 21308.86353587 -.00000046 00000-0 -14870-5 0 9999 2 07530 101.8746 283.3090 0012430 111.5596 324.7473 12.53651190149565 UO-11 1 14781U 84021B 21308.50425171 .00001362 00000-0 17221-3 0 9993 2 14781 97.6015 301.5128 0008106 351.6474 8.4605 14.83362968 6690 LO-19 1 20442U 90005G 21308.62327709 .00000205 00000-0 91336-4 0 9999 2 20442 98.7605 265.4820 0012790 107.4117 252.8466 14.33005675660960 HUBBLE 1 20580U 90037B 21308.47640771 .00002154 00000-0 11891-3 0 9999 2 20580 28.4693 218.4891 0002820 130.1346 32.8366 15.09825073532178 MET-2/21 1 22782U 93055A 21308.44253520 -.00000008 00000-0 -19999-4 0 9993 2 22782 82.5517 192.8158 0021137 258.8223 274.6846 13.83841189423157 AO-27 1 22825U 93061C 21308.44562873 .00000162 00000-0 80781-4 0 9998 2 22825 98.9109 329.4542 0008256 354.5585 5.5505 14.30130930466260 IO-26 1 22826U 93061D 21308.31285090 .00000085 00000-0 50455-4 0 9997 2 22826 98.9051 329.2144 0008555 341.2309 18.8556 14.30471203466222 FO-29 1 24278U 96046B 21308.42475737 .00000000 00000-0 33934-4 0 9997 2 24278 98.5498 357.7498 0350939 146.8239 215.5448 13.53107651245421 NOAA-15 1 25338U 98030A 21308.76338375 .00000219 00000-0 10999-3 0 9990 2 25338 98.6704 335.9559 0009613 228.1758 131.8602 14.26068696221248 GO-32 1 25397U 98043D 21308.61143392 .00000097 00000-0 62279-4 0 9999 2 25397 98.7866 253.8669 0002154 60.6227 299.5166 14.23721025211656 ISS 1 25544U 98067A 21309.02091038 .00007335 00000-0 14149-3 0 9998 2 25544 51.6449 6.3465 0003554 173.3242 256.3723 15.48934760310429 NO-44 1 26931U 01043C 21308.55729446 .00000215 00000-0 11381-3 0 9990 2 26931 67.0505 278.8520 0005747 275.9675 84.0771 14.30642305 49235 SO-50 1 27607U 02058C 21308.50474196 .00001459 00000-0 22688-3 0 9995 2 27607 64.5547 270.0498 0058116 341.5500 18.3494 14.75827532 15171 CO-55 1 27844U 03031E 21308.46683067 .00000411 00000-0 20408-3 0 9999 2 27844 98.6815 314.5646 0010509 38.7143 321.4786 14.22348284951884 CO-57 1 27848U 03031J 21308.29075543 .00000182 00000-0 10225-3 0 9999 2 27848 98.6868 314.9453 0010585 51.9661 308.2470 14.21919023951687 RS-22 1 27939U 03042A 21308.88698547 .00000408 00000-0 81386-4 0 9990 2 27939 98.1613 85.1720 0012692 191.1964 168.8964 14.67053448968113 NOAA-18 1 28654U 05018A 21308.82926466 .00000347 00000-0 21157-3 0 9999 2 28654 98.9791 14.1483 0013448 243.9393 116.0394 14.12654968848352 CO-58 1 28895U 05043F 21308.60995739 .00001505 00000-0 29547-3 0 9997 2 28895 98.0787 78.9504 0017796 126.8763 233.4074 14.64003427854516 Falconsat-3 1 30776U 07006E 21308.63972131 .00061351 00000-0 13535-2 0 9997 2 30776 35.4340 278.2052 0001528 163.6590 196.4188 15.42778603814751 CO-65 1 32785U 08021C 21308.46577872 .00001708 00000-0 18757-3 0 9993 2 32785 97.6288 282.0071 0011362 258.5185 101.4756 14.88879175733009 AAUSAT2 1 32788U 08021F 21308.77655522 .00007771 00000-0 69775-3 0 9991 2 32788 97.5150 297.6509 0012302 152.0370 208.1515 14.95922883734930 DO-64 1 32789U 08021G 21308.50020212 .00035058 00000-0 21599-2 0 9995 2 32789 97.3642 338.4427 0011978 28.3533 331.8346 15.09820143738057 CO-66 1 32791U 08021J 21308.71067964 .00003930 00000-0 39602-3 0 9995 2 32791 97.5867 288.0068 0012092 213.9377 146.1070 14.91641761733769 RS-30 1 32953U 08025A 21308.75129753 .00000021 00000-0 80971-4 0 9992 2 32953 82.5032 323.6812 0020155 34.2066 326.0311 12.43105421610414 PRISM 1 33493U 09002B 21308.75182378 .00009762 00000-0 82820-3 0 9995 2 33493 98.2080 278.2139 0014371 175.0215 185.1151 14.98076830695334 NOAA-19 1 33591U 09005A 21308.80616356 .00000221 00000-0 14469-3 0 9996 2 33591 99.1746 332.9349 0014872 98.5757 261.7100 14.12506807656733 SRMSAT 1 37841U 11058D 21308.35308977 .00000395 00000-0 71927-4 0 9991 2 37841 19.9706 175.5092 0011849 31.2862 126.8023 14.10710441519416 HRBE 1 37855U 11061F 21308.81245162 .00030156 00000-0 14063-2 0 9991 2 37855 101.7228 305.1792 0164138 13.0198 347.5176 15.08612601547800 RS-40 1 38735U 12041C 21308.45157179 .00000012 00000-0 17440-4 0 9990 2 38735 82.4796 45.7896 0017924 139.0079 221.2343 12.42583670420578 ZACUBE-1 1 39417U 13066B 21308.45455563 .00001722 00000-0 21857-3 0 9999 2 39417 97.6092 285.6487 0059868 62.8615 297.8687 14.81660757429808 Delfi-N3xt 1 39428U 13066N 21308.54909009 .00005846 00000-0 92075-3 0 9991 2 39428 97.7927 248.0344 0117871 276.7073 82.0730 14.68246509425704 GOMX-1 1 39430U 13066Q 21308.78599053 .00001002 00000-0 18803-3 0 9991 2 39430 97.8127 223.7818 0151152 33.3149 327.7461 14.59723561423512 LO-74 1 39440U 13066AA 21308.68537649 .00002226 00000-0 31087-3 0 9992 2 39440 97.6952 271.2468 0080514 139.7470 220.9741 14.76383213428310 AO-73 1 39444U 13066AE 21308.75680122 .00003301 00000-0 40416-3 0 9990 2 39444 97.5988 288.3215 0058740 51.6956 308.9519 14.82607819428811 SPROUT 1 39770U 14029E 21308.89541807 .00002408 00000-0 26277-3 0 9999 2 39770 97.9298 60.1663 0010378 105.8506 254.3850 14.88847505404238 DTUSAT-2 1 40030U 14033W 21308.52889121 .00003354 00000-0 36045-3 0 9994 2 40030 97.9207 235.7690 0013269 75.4472 284.8215 14.89170417400674 EO-80 1 40032U 14033Y 21308.29434301 .00002109 00000-0 22920-3 0 9990 2 40032 97.9212 235.5432 0013197 77.1481 283.1209 14.89122426400620 HODOYOSHI-1 1 40299U 14070B 21308.80524352 .00003297 00000-0 13419-3 0 9991 2 40299 97.2746 18.5144 0012213 204.0990 295.4153 15.25129183388800 FIREBIRD FU3 1 40377U 15003B 21308.42485040 .00020793 00000-0 71626-3 0 9997 2 40377 99.1135 119.2786 0114605 63.6363 297.6582 15.23933704374100 FIREBIRD FU4 1 40378U 15003C 21308.72445993 .00050008 00000-0 17058-2 0 9994 2 40378 99.1139 119.8078 0114532 62.4226 298.8584 15.24042068374154 GRIFEX 1 40379U 15003D 21308.69241342 .00028423 00000-0 10920-2 0 9990 2 40379 99.1130 107.8399 0126290 98.0945 263.4634 15.19203950373477 NO-84 1 40654U 15025D 21307.42034291 .00204864 25934-4 65664-3 0 2220 2 40654 54.9685 99.0913 0044670 77.9889 282.6028 15.88946051 28979 XW-2A 1 40903U 15049E 21308.83761434 .00010563 00000-0 21241-3 0 9993 2 40903 97.2189 2.8667 0010733 214.3943 268.0535 15.46743717344480 XW-2C 1 40906U 15049H 21308.87371854 .00003348 00000-0 17161-3 0 9992 2 40906 97.4903 309.5417 0015898 64.3649 53.5347 15.17150066338851 XW-2D 1 40907U 15049J 21308.83672720 .00003732 00000-0 18896-3 0 9998 2 40907 97.4892 309.3515 0015288 59.9158 60.8198 15.17524286338881 LILACSAT-2 1 40908U 15049K 21308.87655969 .00002205 00000-0 12237-3 0 9996 2 40908 97.5107 307.0273 0017253 77.1223 7.5644 15.14680065338482 XW-2E 1 40909U 15049L 21308.87653689 .00005419 00000-0 25253-3 0 9996 2 40909 97.4681 313.5782 0014137 47.5903 36.9419 15.20220903339261 XW-2F 1 40910U 15049M 21308.86683051 .00005105 00000-0 24151-3 0 9991 2 40910 97.4730 312.6585 0015419 46.3894 74.0622 15.19715567339047 XW-2B 1 40911U 15049N 21308.90310487 .00003283 00000-0 16708-3 0 9991 2 40911 97.4888 310.0750 0015235 60.8482 3.8718 15.17434766338781 DCBB 1 40912U 15049P 21308.82464326 .00006065 00000-0 26527-3 0 9996 2 40912 97.4441 317.0018 0014114 19.4750 105.2978 15.22349927339544 TW-1A 1 40928U 15051D 21308.85746906 .00016859 00000-0 32213-3 0 9997 2 40928 97.0680 330.4935 0010827 129.3891 355.5116 15.48107529343393 IO-86 1 40931U 15052B 21306.66199090 .00000506 00000-0 -18696-4 0 9998 2 40931 5.9940 346.6456 0013063 203.7313 156.2332 14.76698894329763 ATHENOXAT-1 1 41168U 15077C 21308.68341005 .00007789 00000-0 35117-3 0 9992 2 41168 14.9874 309.4692 0010787 332.3126 173.5603 15.16554626326097 ChubuSat-2 1 41338U 16012B 21308.62178926 .00002885 00000-0 21566-3 0 9990 2 41338 31.0040 14.5091 0013593 82.7784 277.4396 15.00686595313679 ChubuSat-3 1 41339U 16012C 21308.56499418 .00001225 00000-0 87450-4 0 9998 2 41339 31.0129 11.9573 0013258 89.4141 270.8042 15.00811033313664 Horyu-4 1 41340U 16012D 21308.44273121 .00003677 00000-0 26617-3 0 9998 2 41340 31.0061 354.5236 0013648 123.3026 236.8919 15.02138649313859 [email protected] 1 41459U 16025D 21308.84138594 .00004767 00000-0 23067-3 0 9998 2 41459 98.1607 93.6694 0156009 309.4653 49.2898 15.09014450303582 AAUSAT4 1 41460U 16025E 21308.89777796 .00009094 00000-0 41096-3 0 9998 2 41460 98.1585 98.3534 0142169 290.5408 68.0673 15.12536594303935 LO-87 1 41557U 16033B 21308.84090259 .00006873 00000-0 23594-3 0 9996 2 41557 97.3945 42.0590 0014212 97.2260 50.8522 15.30365929302995 NuSat2 1 41558U 16033C 21308.84527450 .00007279 00000-0 23394-3 0 9994 2 41558 97.4074 46.5582 0013199 89.8953 58.6073 15.32489714303213 Lapan A3 1 41603U 16040E 21308.80914704 .00000953 00000-0 47050-4 0 9999 2 41603 97.2393 350.2862 0012268 223.9143 249.4901 15.20153889297906 Pratham 1 41783U 16059A 21308.45117383 .00000430 00000-0 91809-4 0 9998 2 41783 97.9473 353.6384 0033982 162.2800 197.9596 14.63185866272724 TY-1 1 41844U 16066D 21308.85319507 .00003970 00000-0 15526-3 0 9993 2 41844 97.3977 317.6533 0014411 10.3280 110.9976 15.26340367277318 CAS-2T 1 41847U 16066G 21308.45071667 .00000999 00000-0 15941-3 0 9993 2 41847 98.5847 8.0478 0365416 162.2560 199.1790 14.38275797262000 EO-88 1 42017U 17008BX 21308.44987998 .00020695 00000-0 72965-3 0 9996 2 42017 97.3017 13.5104 0005110 348.1007 12.0112 15.29282253262643 CAS-4B 1 42759U 17034B 21308.90534529 .00001707 00000-0 11497-3 0 9993 2 42759 43.0157 128.7861 0009073 316.6658 187.3600 15.10509092242382 CAS-4A 1 42761U 17034D 21308.88741516 .00001886 00000-0 12533-3 0 9999 2 42761 43.0158 127.8374 0009349 318.1149 181.7171 15.10595828242386 NIUSat 1 42766U 17036B 21308.72056462 .00019731 00000-0 82781-3 0 9998 2 42766 97.2339 349.7467 0015950 46.4959 313.7601 15.23399544242562 Aalto 1 1 42775U 17036L 21308.37418141 .00008415 00000-0 35745-3 0 9990 2 42775 97.2307 349.5811 0014533 47.3241 312.9218 15.23207532242490 URSA MAIOR 1 42776U 17036M 21308.81006582 .00015495 00000-0 64871-3 0 9990 2 42776 97.2319 350.5522 0014248 45.3766 314.8631 15.23544489242583 Max Valier Sat 1 42778U 17036P 21308.49787077 .00019943 00000-0 81672-3 0 9991 2 42778 97.2388 352.4369 0012811 48.6953 311.5385 15.24255077242616 Pegasus 1 42784U 17036V 21308.55008861 .00023619 00000-0 93893-3 0 9995 2 42784 97.2338 353.0514 0012474 50.8299 309.4046 15.25223001242703 NUDATSat 1 42787U 17036Y 21308.88637426 .00008854 00000-0 33029-3 0 9998 2 42787 97.2382 356.2867 0011679 41.6496 318.5637 15.27576873242767 SUCHAI 1 1 42788U 17036Z 21308.79819514 .00033362 00000-0 12859-2 0 9998 2 42788 97.2346 354.4769 0011847 47.2224 313.0010 15.26189516242888 SKCUBE 1 42789U 17036AA 21308.39530396 .00015032 00000-0 58859-3 0 9998 2 42789 97.2342 353.7265 0011826 49.1893 311.0369 15.25829963242722 VZLUSAT 1 1 42790U 17036AB 21308.09732897 .00016000 00000-0 59510-3 0 9998 2 42790 97.2378 355.5064 0010982 45.7799 314.4340 15.27532060242793 VENTA 1 1 42791U 17036AC 21308.38358463 .00013060 00000-0 51388-3 0 9992 2 42791 97.2338 353.7078 0011529 50.0301 310.1948 15.25702031242715 Robusta 1B 1 42792U 17036AD 21308.79952381 .00026979 00000-0 10430-2 0 9992 2 42792 97.2342 354.5558 0011400 48.2050 312.0161 15.26139050242827 D-SAT 1 42794U 17036AF 21308.49181920 .00003064 00000-0 26550-3 0 9995 2 42794 97.4570 320.9244 0126533 117.5310 243.8834 14.91766446237936 TechnoSat 1 42829U 17042E 21308.41637406 .00001202 00000-0 12539-3 0 9992 2 42829 97.4464 170.3615 0015284 44.3189 315.9251 14.91392863234543 QIKCOM-1 1 42983U 98067NF 21308.50940370 .00099404 00000-0 78280-3 0 9992 2 42983 51.6353 266.1469 0003698 133.7931 226.3373 15.70652224229382 AO-91 1 43017U 17073E 21308.51547604 .00007427 00000-0 57192-3 0 9996 2 43017 97.6925 206.8647 0252971 202.9362 156.0394 14.79933953213836 EcAMSat 1 43019U 98067NG 21308.12681989 .00344101 60508-4 69320-3 0 9994 2 43019 51.6360 214.5835 0005137 153.9628 206.1641 15.99101239312352 PICSAT 1 43132U 18004X 21308.62755971 .00035728 00000-0 13522-2 0 9992 2 43132 97.3984 21.8875 0010330 77.5405 282.6989 15.26798164212065 AO-92 1 43137U 18004AC 21308.43763293 .00022348 00000-0 86869-3 0 9991 2 43137 97.3955 20.9969 0010172 80.1767 280.0620 15.26010278211995 TianYi 2 1 43155U 18008A 21308.89297237 .00003920 00000-0 22534-3 0 9999 2 43155 97.3878 9.5558 0016659 196.7013 218.7070 15.12940956209309 Zhou Enlai 1 43156U 18008B 21308.87292965 .00004799 00000-0 27803-3 0 9990 2 43156 97.3919 9.3765 0014020 196.8788 274.0617 15.12582668209230 TianYi 6 1 43158U 18008D 21308.80447350 .00003453 00000-0 20477-3 0 9991 2 43158 97.3874 7.6792 0013181 196.1643 273.8404 15.11934636209149 S-Net D 1 43186U 18014G 21308.44513295 .00002662 00000-0 23476-3 0 9994 2 43186 97.6675 213.4349 0010582 341.5929 18.4909 14.97226837205242 S-Net B 1 43187U 18014H 21308.17778267 .00001409 00000-0 12664-3 0 9992 2 43187 97.6673 213.1338 0010578 342.4002 17.6852 14.97217224205207 S-Net A 1 43188U 18014J 21308.24477106 .00001389 00000-0 12495-3 0 9998 2 43188 97.6675 213.2509 0010579 342.2397 17.8454 14.97216220205213 S-Net C 1 43189U 18014K 21308.17844476 .00001366 00000-0 12293-3 0 9990 2 43189 97.6671 213.1258 0010585 342.2679 17.8172 14.97215343203759 FMN 1 1 43192U 18015A 21308.75541557 .00012238 00000-0 42670-3 0 9995 2 43192 97.5072 85.1135 0014957 105.7817 3.1223 15.29674341209025 Shaonian Xing 1 43199U 18015H 21308.77786637 .00009193 00000-0 33111-3 0 9990 2 43199 97.4862 81.7362 0016676 115.5100 350.6271 15.28667233209075 SurfSat 1 43614U 18070B 21308.43650189 .00036637 00000-0 79526-3 0 9991 2 43614 93.0291 4.4004 0013789 167.8400 192.3192 15.44156194176258 CP-7 DAVE 1 43615U 18070C 21308.41846805 .00034228 00000-0 75266-3 0 9993 2 43615 93.0295 4.3285 0014068 168.5199 191.6382 15.43776844176237 ELFIN-B 1 43616U 18070D 21308.58385093 .00134557 00000-0 25248-2 0 9999 2 43616 93.0240 4.7967 0013667 163.1064 197.0653 15.48053534176426 ELFIN-A 1 43617U 18070E 21308.42845852 .00074406 00000-0 13764-2 0 9993 2 43617 93.0298 5.7228 0013132 160.3179 199.8590 15.48687325176425 CubeBel-1 1 43666U 18083E 21308.83415575 .00005351 00000-0 25094-3 0 9994 2 43666 97.4452 335.4075 0015277 45.5145 58.5678 15.19994500167333 Changshagaoxin 1 43669U 18083H 21308.81013016 .00004922 00000-0 23989-3 0 9993 2 43669 97.4370 332.0331 0011376 45.0528 74.6780 15.18737420167180 Ten-Koh 1 43677U 18084G 21308.62738750 .00002249 00000-0 23537-3 0 9990 2 43677 97.9380 72.1746 0014730 294.8658 65.1028 14.90585262164183 PO-101 1 43678U 18084H 21308.84178726 .00000915 00000-0 96413-4 0 9998 2 43678 97.9427 75.0007 0008540 312.0818 47.9698 14.91825081164369 IRVINE 01 1 43693U 18088D 21308.72438254 .00072621 00000-0 26751-2 0 9990 2 43693 85.0302 101.6167 0014115 221.5104 138.5070 15.27440834165839 QO-100 1 43700U 18090A 21308.52656862 .00000154 00000-0 00000 0 0 9995 2 43700 0.0121 272.7552 0002303 333.5355 13.1132 1.00273045 11011 Reaktor Hello World 1 43743U 18096AA 21308.61630441 .00031379 00000-0 10836-2 0 9997 2 43743 97.3764 25.0443 0017893 135.8700 224.3972 15.29734062163557 MinXSS-2 1 43758U 18099A 21308.41505883 .00003267 00000-0 29366-3 0 9999 2 43758 97.6538 16.6194 0013924 303.2660 56.7227 14.96293685159448 AO-95 1 43770U 18099N 21308.43189455 .00001944 00000-0 18033-3 0 9997 2 43770 97.6513 15.4344 0013350 313.8668 46.1450 14.95525201159371 RANGE-B 1 43772U 18099Q 21308.16235158 .00002957 00000-0 26917-3 0 9996 2 43772 97.6609 16.3939 0012669 300.7454 59.2519 14.95887251159343 RANGE-A 1 43773U 18099R 21308.44951315 .00001607 00000-0 15060-3 0 9996 2 43773 97.6440 14.6280 0012192 299.4394 60.5609 14.95361366159366 MOVE-II 1 43780U 18099Y 21308.73350345 .00010837 00000-0 96251-3 0 9998 2 43780 97.6535 16.4399 0011880 308.0602 51.9547 14.96262434159443 SNUSat 2 1 43782U 18099AA 21308.44260825 .00001779 00000-0 16457-3 0 9996 2 43782 97.6511 15.8348 0011438 298.4260 61.5808 14.95750554159392 SnugLite 1 43784U 18099AC 21308.50546731 .00003571 00000-0 32364-3 0 9995 2 43784 97.6474 15.5869 0013834 306.0746 53.9194 14.95903649159426 ITASat 1 1 43786U 18099AE 21308.79290663 .00003185 00000-0 29001-3 0 9993 2 43786 97.6530 16.5623 0013825 303.9875 56.0032 14.95798187159467 EAGLET 1 1 43790U 18099AJ 21308.46077588 .00001604 00000-0 14752-3 0 9992 2 43790 97.6520 16.7045 0012241 309.3532 50.6604 14.96113862159144 ESEO 1 43792U 18099AL 21308.46970738 .00001336 00000-0 12464-3 0 9993 2 43792 97.6486 16.1872 0011909 306.9399 53.0731 14.95827741159193 CSIM 1 43793U 18099AM 21308.13850804 .00004376 00000-0 38566-3 0 9997 2 43793 97.6531 16.5170 0011196 301.9029 58.1103 14.96910366159166 Astrocast 0.1 1 43798U 18099AS 21308.78908494 .00001618 00000-0 14770-3 0 9999 2 43798 97.6527 17.2849 0011010 285.3962 74.6043 14.96394756159506 JO-97 1 43803U 18099AX 21308.46454574 .00002809 00000-0 25460-3 0 9997 2 43803 97.6493 15.9804 0013676 304.7306 55.2626 14.96078906159428 Suomi 100 1 43804U 18099AY 21308.40626678 .00002903 00000-0 26318-3 0 9996 2 43804 97.6493 15.8776 0013662 305.5062 54.4885 14.96041116159420 Al Farabi 2 1 43805U 18099AZ 21308.71912309 .00001674 00000-0 15289-3 0 9999 2 43805 97.6515 16.4846 0013740 302.7920 57.1977 14.96306870159489 CHOMPTT 1 43855U 18104G 21308.81499503 .00006801 00000-0 27313-3 0 9996 2 43855 85.0406 200.4505 0016633 357.1874 2.9273 15.24628758160479 ISAT 1 43879U 18111D 21308.65495490 .00001243 00000-0 11326-3 0 9995 2 43879 97.6739 213.3622 0013270 359.9832 0.1409 14.96866332154029 UWE-4 1 43880U 18111E 21308.48763791 .00005204 00000-0 45522-3 0 9996 2 43880 97.6767 213.7566 0012129 3.3833 356.7468 14.97110945154035 Sparrow 1 43881U 18111F 21308.65321317 .00006718 00000-0 58495-3 0 9994 2 43881 97.6777 214.0813 0012567 358.4837 1.6344 14.97181611154060 Lume 1 1 43908U 18111AJ 21308.73786138 .00023812 00000-0 89398-3 0 9999 2 43908 97.2149 198.8657 0020839 148.9777 211.2698 15.26991633159073 FO-98 1 43933U 19003B 21308.34730097 .00149889 00000-0 46979-2 0 9998 2 43933 97.1693 344.8309 0012030 249.4418 110.5534 15.32389914155485 FO-99 1 43937U 19003F 21308.37676086 .00014935 00000-0 56864-3 0 9990 2 43937 97.1612 345.8995 0021167 233.0635 126.8666 15.26616412155602 MYSat 1 1 44045U 18092F 21308.69255231 .00076277 00000-0 17362-2 0 9994 2 44045 51.6357 100.9137 0009465 356.9839 3.1088 15.42232867153081 AstroCast 0.2 1 44083U 19018F 21308.59363255 .00037847 00000-0 15841-2 0 9990 2 44083 97.3568 6.9762 0012199 193.0182 167.0742 15.23392652144223 AISTechSat 3 1 44103U 19018AB 21308.82556428 .00004848 00000-0 19874-3 0 9991 2 44103 97.3444 7.6448 0012519 201.2686 270.4892 15.24658709144397 AISat 1 1 44104U 19018AC 21308.54638534 .00017262 00000-0 52304-3 0 9999 2 44104 97.4163 26.1578 0054777 215.0757 144.6873 15.32707741145124 Prox-1 1 44339U 19036A 21308.06207753 .00003193 00000-0 69560-3 0 9991 2 44339 23.9989 174.7615 0011103 266.3467 93.5755 14.53886468125506 Oculus-ASR 1 44348U 19036K 21308.58630763 .00111040 00000-0 14253-2 0 9998 2 44348 28.5114 278.3473 0309221 348.7220 10.6567 15.17541059130178 Armadillo 1 44352U 19036P 21308.38647127 .00179797 00000-0 19989-2 0 9997 2 44352 28.5263 245.9529 0266121 39.2396 322.7175 15.28780456130436 NO-104 1 44354U 19036R 21308.59662601 .00113543 00000-0 14134-2 0 9990 2 44354 28.5272 269.3199 0303275 0.9770 359.1373 15.19345837130258 NO-103 1 44355U 19036S 21308.03652777 .00153749 -66169-6 13519-2 0 9996 2 44355 28.5232 200.8198 0214124 112.3667 249.9771 15.43346369130897 Move-IIb 1 44398U 19038N 21308.62373935 .00006613 00000-0 36030-3 0 9992 2 44398 97.5970 272.1988 0023440 181.3873 178.7314 15.14512005128970 SONATE 1 44400U 19038Q 21308.88124571 .00003088 00000-0 17798-3 0 9997 2 44400 97.6061 272.1886 0024095 182.7745 177.3357 15.12919717128963 BeeSat 9 1 44412U 19038AC 21308.69547231 .00018089 00000-0 99516-3 0 9996 2 44412 97.6064 272.3984 0021502 186.0614 174.0361 15.13917763128668 JAISAT-1 1 44419U 19038F 21308.68642174 .00017145 00000-0 93131-3 0 9993 2 44419 97.6066 273.0481 0020493 183.6516 176.4569 15.14399962129011 LightSail-2 1 44420U 19036AC 21307.97372033 .00031338 00000-0 60919-2 0 9995 2 44420 24.0053 145.1785 0018880 289.1823 70.6627 14.61663979124039 Taurus 1 1 44530U 19059C 21308.83374767 .00001168 00000-0 33815-3 0 9998 2 44530 98.5511 40.3778 0014638 83.6063 276.6771 14.46275008113372 Duchifat 3 1 44854U 19089C 21308.48709530 .00002079 00000-0 17128-3 0 9992 2 44854 36.9669 352.3731 0007802 200.3558 159.6892 14.99759840104135 OPS-SAT 1 44878U 19092F 21308.44838156 .00009371 00000-0 47503-3 0 9997 2 44878 97.4756 129.9839 0014738 47.8245 312.4237 15.17081318104052 TO-108 1 44881U 19093C 21308.81837272 -.00000409 00000-0 -45309-4 0 9999 2 44881 97.9162 26.0502 0015020 190.4446 169.6440 14.81501475101516 FloripaSat 1 1 44885U 19093G 21308.82289424 .00000498 00000-0 68750-4 0 9995 2 44885 97.9190 26.8624 0014539 197.8576 162.2116 14.82446414101569 RS-44 1 44909U 19096E 21308.49579371 .00000029 00000-0 63546-4 0 9999 2 44909 82.5259 19.7566 0218375 125.5793 236.5876 12.79711288 86738 HO-107 1 45119U 19071J 21308.65613769 .00052511 00000-0 14126-2 0 9995 2 45119 51.6406 76.4761 0011086 77.2287 282.9935 15.37299470 98725 Phoenix 1 45258U 98067RB 21308.61441711 .00126513 00000-0 14591-2 0 9993 2 45258 51.6380 345.7665 0006572 51.6301 308.5282 15.60996922 97060 AztechSat-1 1 45261U 98067RE 21308.45457857 .00630148 00000-0 23104-2 0 9991 2 45261 51.6286 321.2663 0009270 60.7358 299.4571 15.86128575 97391 QARMAN 1 45263U 98067RG 21308.49418632 .00429658 00000-0 29539-2 0 9995 2 45263 51.6346 332.9215 0007697 58.5512 301.6238 15.72803021 97285 Quetzal 1 1 45598U 98067RL 21308.45124817 .00220242 00000-0 18339-2 0 9995 2 45598 51.6371 340.1962 0003108 52.8895 307.2386 15.68876380 86454 BY70-2 1 45857U 20042B 21308.85681699 .00003786 00000-0 53722-3 0 9999 2 45857 97.9765 23.1220 0012537 122.4142 237.8290 14.77509200 72272 UPMSat 2 1 46276U 20061E 21308.62390886 .00007781 00000-0 39940-3 0 9991 2 46276 97.4202 19.5072 0000975 148.9080 211.2211 15.16787368 64783 AmicalSat 1 46287U 20061R 21308.47137151 .00006100 00000-0 37028-3 0 9999 2 46287 97.4754 18.5995 0002390 10.8918 349.2363 15.10868163 64484 SALSAT 1 46495U 20068K 21308.55215686 .00001513 00000-0 11484-3 0 9997 2 46495 97.7025 245.2941 0015740 324.6601 35.3578 15.03647800 60388 BY70-3 1 46839U 20079N 21308.93754597 .00010741 00000-0 31755-3 0 9998 2 46839 97.2294 20.0150 0008451 67.7055 44.5477 15.35065399 55749 SPOC 1 46921U 98067RR 21308.40353225 .00076286 00000-0 97549-3 0 9996 2 46921 51.6412 356.4369 0000949 322.5678 37.5248 15.58539720 56650 Bobcat-1 1 46922U 98067RS 21308.69749241 .00270600 00000-0 28547-2 0 9992 2 46922 51.6417 350.9336 0002089 1.5530 358.5471 15.62799154 56701 Neutron-1 1 46923U 98067RT 21308.62308200 .00120745 00000-0 15363-2 0 9998 2 46923 51.6416 355.6508 0001380 331.6265 28.4652 15.58460085 56706 CAPE 3 1 47309U 21002A 21308.79085002 .00021013 00000-0 91406-3 0 9993 2 47309 60.6815 127.0544 0042124 122.9176 237.5973 15.21502300 44233 AO-109 1 47311U 21002C 21308.49051250 .00010888 00000-0 47011-3 0 9992 2 47311 60.6852 126.7588 0039322 118.2329 242.2737 15.22326477 44191 MiTEE 1 1 47314U 21002F 21308.47319780 .00021861 00000-0 87552-3 0 9995 2 47314 60.6829 124.3279 0040265 111.2841 249.2554 15.24332196 44246 ExoCube 2 1 47319U 21002L 21308.62694305 .00020299 00000-0 87336-3 0 9990 2 47319 60.6842 126.8225 0040148 120.2077 240.2995 15.21967917 44168 UVSQ-SAT 1 47438U 21006AB 21308.42755244 .00007521 00000-0 42187-3 0 9992 2 47438 97.4716 7.0526 0011893 342.0308 18.0501 15.13588881 43228 YUSAT 1 1 47439U 21006AC 21308.42789310 .00008774 00000-0 49064-3 0 9996 2 47439 97.4721 7.0618 0011750 342.2981 17.7840 15.13653236 43227 SOMP 2b 1 47445U 21006AJ 21308.58976390 .00014749 00000-0 82698-3 0 9995 2 47445 97.4686 7.0379 0011644 345.2661 14.8229 15.13423052 43240 IDEASSat 1 47458U 21006AX 21308.74760320 .00011472 00000-0 64702-3 0 9997 2 47458 97.4776 7.4759 0010678 343.6590 16.4295 15.13280615 43268 RSP-01 1 47925U 98067SB 21308.68615210 .00130306 00000-0 18105-2 0 9990 2 47925 51.6424 2.0571 0000250 78.7031 281.3989 15.56060568 36572 TAUSAT-1 1 47926U 98067SC 21308.76467619 .00204612 00000-0 26386-2 0 9990 2 47926 51.6409 0.3209 0000334 153.9568 206.1441 15.57775586 36593 Tsuru 1 47927U 98067SD 21308.65596470 .00120519 00000-0 17150-2 0 9999 2 47927 51.6424 2.6053 0000368 132.5794 227.5228 15.55454555 36569 STARS-EC 1 47928U 98067SE 21308.76620924 .00226648 00000-0 29294-2 0 9996 2 47928 51.6415 1.0823 0004475 305.8572 54.2005 15.57629799 36575 Maya-2 1 47929U 98067SF 21308.45904653 .00073652 00000-0 10585-2 0 9995 2 47929 51.6422 3.5390 0000488 132.2805 227.8228 15.55416179 36491 OPUSAT-II 1 47930U 98067SG 21308.64014588 .00268593 00000-0 33640-2 0 9994 2 47930 51.6415 1.0019 0001034 45.2786 314.8291 15.58323556 36581 GuaraniSat-1 1 47931U 98067SH 21308.71345423 .00146382 00000-0 20685-2 0 9994 2 47931 51.6424 2.2417 0000559 132.3109 227.7930 15.55536672 36578 CubeSX-Sirius-HSE 1 47951U 21022V 21308.80767038 .00002565 00000-0 17944-3 0 9992 2 47951 97.5464 208.0589 0021596 188.7826 259.4737 15.05977049 34177 CubeSX-HSE 1 47952U 21022W 21308.80140608 .00002240 00000-0 15711-3 0 9991 2 47952 97.5463 208.0603 0021579 187.7643 258.6190 15.06015335 34177 KSU-Cubesat 1 47954U 21022Y 21308.37420961 .00004725 00000-0 32575-3 0 9995 2 47954 97.5457 207.6811 0020956 189.0970 170.9880 15.06125743 33833 GRBAlpha 1 47959U 21022AD 21308.80208667 .00002479 00000-0 17345-3 0 9997 2 47959 97.5460 208.0792 0021245 188.3052 261.0426 15.06021107 32993 Orbicraft-Zorkiy 1 47960U 21022AE 21308.72444831 .00002346 00000-0 16403-3 0 9992 2 47960 97.5467 208.0608 0020838 187.8621 257.0336 15.06094082 33674 STECCO 1 47962U 21022AG 21308.82866609 .00004050 00000-0 27186-3 0 9990 2 47962 97.5425 208.4232 0016165 183.8339 248.6458 15.07272456 33010 DO-111 1 47963U 21022AH 21308.47049151 .00043043 00000-0 27552-2 0 9998 2 47963 97.5459 208.2925 0018646 181.3612 178.7569 15.08282346 32990 MO-110 1 47964U 21022AJ 21308.44317865 .00008073 00000-0 53249-3 0 9993 2 47964 97.5448 208.1595 0019301 181.4875 178.6298 15.07572394 32961 FEES 1 48082U 21022AL 21308.77301273 .00024648 00000-0 16286-2 0 9992 2 48082 97.5457 208.3679 0015683 176.1119 184.0234 15.07287308 32711 RamSat 1 48850U 98067SL 21308.69860505 .00091596 00000-0 14585-2 0 9993 2 48850 51.6428 5.8579 0004148 317.5629 42.5040 15.52492864 22271 MO-112 1 48868U 98067SP 21308.43124250 .00151045 00000-0 21499-2 0 9992 2 48868 51.6419 6.3241 0003771 339.5312 20.5528 15.55316961 21021 TUBIN 1 48900U 21059X 21308.78359604 .00003156 00000-0 18507-3 0 9993 2 48900 97.5270 75.6342 0011175 151.6846 314.4367 15.12442600 19942 IT-SPINS 1 49017U 21013G 21308.48604290 .00019963 00000-0 83976-3 0 9999 2 49017 51.6170 33.0269 0006812 324.4968 35.5555 15.23355826 19467 CUTE 1 49263U 21088D 21308.45451501 .00004907 00000-0 38039-3 0 9998 2 49263 97.6219 15.8053 0019824 116.0852 244.2415 15.01702148 5645 OBJECT SR 1 49272U 98067SR 21308.46605821 .00057259 00000-0 97631-3 0 9997 2 49272 51.6430 8.7945 0003897 197.0753 163.0105 15.50785257 4608 Maya-3 1 49273U 98067SS 21308.46503532 .00068915 00000-0 11647-2 0 9997 2 49273 51.6430 8.7875 0003529 194.3822 165.7068 15.50956162 4602 Maya-4 1 49274U 98067ST 21308.59463134 .00130815 00000-0 21858-2 0 9999 2 49274 51.6429 8.1534 0003459 192.5495 167.5409 15.50966607 4621 CUAVA-1 1 49275U 98067SU 21308.73735280 .00022823 00000-0 39312-3 0 9994 2 49275 51.6444 7.4164 0004161 197.9297 251.2382 15.50960360 4597 /EX